Wind_Speed
17 24 31 27 29 28 27 28 25 27 25 29 32 34 32 26 26 25 27 29 29 31 33 29 27 27 26 25 23 20 21 18 18 18 17 14 14 16 18 20 21 20 26 28
21 26 20 22 25 24 23 25 25 25 16 17 26 37 34 34 35 30 28 31 31 32 34 34 31 30 28 28 24 20 20 18 19 17 16 14 16 18 18 17 18 17 23 23
24 18 12 14 23 20 21 21 20 21 21 22 29 39 29 24 29 30 32 30 29 27 33 34 35 33 30 29 24 20 16 17 18 17 15 14 18 17 15 12 13 15 16 27
20 23 25 20 14 15 17 15 13 15 12 7 9 14 20 25 22 23 30 29 27 20 24 27 36 35 32 26 22 18 17 19 18 17 13 13 16 16 10 7 11 5 2 12
14 12 11 24 27 19 12 11 12 13 12 12 13 12 10 13 22 14 14 22 20 19 22 26 32 34 29 23 23 20 19 18 16 15 12 12 13 11 7 10 10 5 1 7
25 15 10 9 10 11 9 11 12 12 8 5 11 18 13 9 12 12 4 13 16 16 19 25 32 31 25 24 23 22 20 18 14 13 11 10 9 8 8 10 8 9 8 9
19 21 22 21 19 18 12 7 2 1 3 4 4 11 18 17 18 15 9 17 18 17 15 24 30 30 27 23 23 22 22 19 14 13 10 9 5 7 9 10 10 10 13 16
9 4 10 11 20 8 7 7 4 3 2 3 4 8 4 5 8 8 10 16 14 17 17 15 24 28 27 26 26 25 20 17 13 13 10 8 5 9 9 11 9 8 10 12
4 2 4 5 5 6 4 8 11 5 9 5 6 6 12 15 10 15 10 9 14 15 19 19 19 21 24 33 31 31 24 20 16 14 11 8 5 8 10 11 10 9 8 9
9 3 3 6 8 8 9 6 5 7 3 4 4 4 5 15 14 12 11 19 17 15 18 19 21 22 26 24 33 33 27 22 17 15 13 10 8 7 9 10 9 8 9 6
17 9 2 4 7 4 8 9 4 4 4 2 3 2 3 10 8 15 14 10 11 16 17 14 24 31 27 26 33 34 30 24 19 18 16 13 11 8 7 7 6 5 3 5
20 10 11 14 8 8 6 8 7 3 2 5 2 6 8 6 6 18 14 12 11 10 18 17 21 32 32 25 33 35 31 25 21 19 17 16 14 12 10 9 7 5 3 2
16 10 5 5 5 14 10 8 6 8 12 6 3 3 5 15 25 29 24 12 10 12 14 15 21 28 30 30 33 32 32 28 25 21 20 18 16 14 12 10 7 6 5 5
17 14 6 5 6 6 4 5 8 9 5 7 14 19 15 18 23 24 17 18 6 9 12 12 16 14 26 33 36 35 34 33 27 22 23 22 20 16 13 10 9 9 8 8
8 5 5 4 3 1 4 8 9 13 14 11 21 22 26 22 17 21 21 18 7 9 10 11 16 22 20 28 31 32 30 29 25 23 22 21 20 17 14 12 11 11 12 13
6 1 0 1 2 5 12 13 13 10 9 17 19 27 18 9 13 19 14 17 4 17 14 11 14 23 24 25 26 27 28 27 21 18 17 16 16 13 11 7 7 8 9 8
3 0 2 4 5 12 4 5 6 6 8 14 21 24 18 15 15 13 11 11 6 12 21 21 17 18 17 18 19 22 26 25 26 22 22 23 15 14 15 12 12 12 9 11
2 7 6 7 5 1 7 5 3 7 10 15 20 21 15 16 15 15 13 13 17 3 21 23 24 24 21 23 21 21 25 26 27 26 28 24 24 24 24 27 24 21 26 25
14 14 5 2 1 10 5 4 4 16 13 11 17 17 17 14 15 17 17 18 19 15 16 20 24 24 24 20 20 20 12 13 10 14 12 18 21 23 23 23 24 24 27 29
19 16 9 2 2 3 4 6 13 15 9 6 18 20 19 24 22 22 23 21 19 20 18 17 9 19 22 18 13 9 7 6 9 11 13 16 19 19 20 22 23 25 27 29
9 9 12 10 5 6 8 10 9 2 9 20 24 16 20 20 24 23 27 25 12 16 19 18 15 12 13 10 8 6 7 10 11 13 14 16 17 18 18 18 19 20 21 22
3 4 5 6 5 5 1 4 10 10 18 20 22 22 19 16 16 18 21 25 24 17 13 11 8 5 5 4 6 7 8 8 10 12 13 15 15 15 15 16 17 18 19 20
3 5 3 6 5 11 17 17 17 17 16 16 16 16 17 12 8 18 24 22 22 19 15 10 6 3 3 3 3 4 6 8 9 11 11 12 13 14 14 14 16 16 17 18
4 6 7 6 9 14 15 19 15 10 11 13 11 5 14 13 15 13 11 13 13 8 6 5 4 4 4 5 5 6 7 8 9 9 10 11 12 12 13 14 15 16 17 18
10 7 8 12 18 20 19 11 7 7 9 10 7 9 12 12 16 15 11 8 3 2 4 4 4 4 5 5 6 6 7 8 9 10 11 12 13 14 14 15 15 16 17 18
11 10 11 14 15 14 11 7 5 3 5 2 4 7 10 11 11 8 5 5 3 4 6 6 6 6 6 7 7 7 7 8 9 10 11 12 13 14 15 16 16 17 19 20
Wind_Direction
240 235 241 256 257 266 274 273 274 278 284 289 284 277 269 253 249 255 251 248 242 240 228 222 222 228 232 231 240 252 251 263 285 287 292 286 285 280 272 265 253 247 251 245
241 247 264 268 260 259 262 269 277 290 300 291 290 281 277 264 250 245 249 254 253 244 230 225 225 229 229 239 238 247 247 259 276 284 289 290 287 281 272 264 260 246 250 232
247 252 264 284 247 252 260 268 286 297 307 294 299 293 293 288 268 252 247 254 251 252 236 231 229 228 235 236 243 238 237 253 268 284 285 290 291 290 284 267 246 250 255 226
253 261 257 248 228 238 271 280 287 294 305 290 343 292 293 304 281 268 254 251 250 252 235 238 230 231 232 230 228 216 221 246 266 280 282 287 294 294 279 221 225 219 164 198
242 269 254 241 240 254 260 280 288 302 280 289 274 263 305 307 293 296 260 241 239 237 230 236 222 220 215 210 211 209 218 240 259 275 277 288 294 283 236 196 220 223 247 185
250 243 219 230 218 246 265 288 301 285 274 261 255 221 288 292 338 304 323 197 209 213 236 223 210 207 204 206 201 204 218 230 254 271 272 286 292 261 223 200 218 232 241 225
236 238 244 249 255 259 261 272 297 245 191 260 304 183 252 296 290 286 228 185 194 213 213 207 205 206 201 208 198 201 217 226 247 261 264 279 272 232 208 204 205 224 226 231
216 233 235 246 240 239 207 220 215 247 234 300 279 235 234 308 317 320 278 220 218 215 215 184 194 200 208 219 207 203 215 218 237 249 251 258 238 212 206 203 209 224 235 236
232 242 180 137 159 200 220 208 227 260 284 273 241 266 248 281 284 278 272 246 235 226 218 205 202 193 219 228 208 211 209 215 229 234 238 239 222 190 199 206 209 208 217 231
256 239 211 197 215 232 231 225 201 206 245 240 259 257 301 332 324 298 278 247 253 243 218 222 217 205 222 224 209 206 208 210 224 220 221 222 209 197 192 193 200 208 196 205
226 228 196 199 211 209 229 232 213 236 220 270 297 275 263 312 355 358 307 273 260 239 221 233 211 212 239 231 207 198 203 205 223 216 212 210 198 196 185 181 185 194 187 182
210 224 222 241 242 252 254 245 233 224 217 232 243 273 258 276 17 4 356 302 271 257 229 246 213 223 236 221 200 196 203 207 222 215 210 205 200 197 197 192 192 184 196 197
185 213 201 176 200 215 215 227 254 260 268 254 277 292 346 328 321 330 317 339 299 252 239 227 228 225 233 199 190 194 199 204 219 215 211 206 202 203 207 212 215 217 218 227
189 181 227 188 135 157 199 230 250 274 286 311 283 288 303 303 327 322 320 321 279 257 238 227 195 200 201 188 187 194 196 205 214 213 211 209 209 210 215 224 230 235 237 243
183 154 127 143 135 244 274 289 282 273 280 261 286 283 296 304 307 311 308 327 239 204 204 212 189 199 190 190 192 196 197 209 215 218 216 214 214 214 219 227 239 249 254 253
132 125 21 307 253 299 304 296 285 290 297 289 306 299 327 307 293 287 291 319 241 178 179 188 192 185 199 194 194 195 201 210 210 206 206 210 210 204 201 206 238 255 263 267
70 358 289 263 283 315 296 150 348 321 301 314 310 314 306 303 310 265 277 294 282 143 157 165 178 178 185 194 193 190 201 207 213 214 194 191 197 220 220 228 243 254 261 268
210 259 251 254 304 234 167 329 249 321 315 313 300 304 292 290 297 259 264 252 260 119 115 132 146 149 168 177 175 194 202 186 200 195 217 225 214 229 241 243 248 258 257 264
236 252 259 296 257 283 274 169 334 346 338 358 355 358 327 294 297 263 241 259 261 212 203 136 131 131 139 135 151 166 164 191 206 195 176 219 228 229 234 241 248 253 259 263
224 231 224 189 271 254 153 249 299 302 295 343 343 332 329 304 241 216 228 230 223 203 185 180 152 135 134 132 134 148 148 170 209 224 232 238 238 240 242 246 251 253 256 259
184 209 225 230 254 281 288 325 324 244 299 325 334 328 320 277 246 239 205 184 182 161 135 122 118 117 110 121 129 148 178 204 225 234 239 243 245 249 251 254 258 261 264 267
162 193 203 207 229 270 337 351 360 321 324 332 344 333 322 279 242 193 164 139 127 124 120 115 113 123 135 156 175 189 233 247 254 245 243 248 248 250 253 257 261 264 267 268
200 218 210 212 250 288 306 306 302 305 317 333 344 11 4 268 200 152 147 142 131 127 125 132 143 171 216 239 257 263 260 259 257 259 258 255 258 260 261 264 267 269 271 273
266 269 243 263 258 286 294 300 297 321 334 323 335 40 82 99 117 135 143 139 136 133 167 185 205 223 236 240 241 246 252 260 264 266 269 267 264 262 262 264 267 271 275 279
309 272 276 269 272 277 287 300 317 318 330 336 304 168 136 144 140 132 124 152 158 220 239 244 242 241 245 248 245 244 249 253 256 259 259 261 264 266 268 272 277 281 283 285
314 295 294 274 264 264 257 300 272 333 330 19 106 149 146 167 179 170 175 180 199 269 270 269 258 240 238 243 247 253 257 262 264 264 267 270 273 277 281 283 285 284 285 285
Height
3034 3036 3032 3036 3037 3038 3038 3037 3036 3034 3034 3031 3025 3021 3023 3027 3026 3028 3031 3034 3037 3040 3047 3051 3054 3058 3060 3061 3063 3066 3067 3069 3070 3068 3067 3066 3066 3066 3066 3065 3066 3067 3067 3067
3032 3028 3033 3033 3034 3033 3033 3033 3031 3030 3029 3027 3020 3010 3014 3016 3016 3019 3022 3025 3029 3032 3037 3043 3047 3051 3053 3056 3057 3060 3063 3065 3066 3064 3063 3062 3061 3061 3060 3060 3060 3061 3060 3061
3025 3028 3028 3029 3028 3029 3029 3029 3027 3026 3024 3022 3016 3000 3002 3006 3008 3012 3014 3017 3021 3024 3028 3034 3039 3044 3047 3050 3053 3055 3058 3061 3060 3060 3059 3057 3056 3055 3054 3054 3056 3056 3053 3053
3021 3021 3023 3025 3025 3026 3025 3023 3023 3022 3024 3024 3021 3005 3001 3000 3002 3003 3007 3011 3014 3017 3021 3026 3031 3036 3041 3045 3048 3050 3054 3056 3056 3056 3055 3054 3052 3050 3050 3051 3053 3053 3050 3050
3016 3016 3018 3019 3021 3023 3022 3020 3020 3020 3021 3020 3021 3019 2999 2997 2996 2998 2999 3003 3008 3012 3014 3017 3023 3028 3034 3038 3042 3046 3050 3052 3053 3052 3051 3050 3048 3046 3047 3048 3051 3051 3051 3051
3012 3015 3015 3017 3018 3020 3018 3017 3017 3016 3017 3017 3012 3015 2999 2995 2996 2994 2994 2997 3001 3005 3008 3010 3015 3022 3028 3033 3037 3041 3045 3047 3049 3049 3048 3047 3045 3045 3045 3047 3049 3051 3052 3054
3010 3010 3011 3013 3015 3015 3015 3014 3015 3015 3015 3010 3008 3010 2997 2995 2991 2990 2990 2992 2995 3000 3004 3006 3012 3018 3024 3029 3033 3036 3040 3043 3046 3046 3045 3044 3043 3043 3044 3046 3048 3050 3052 3054
3006 3006 3005 3006 3009 3012 3011 3012 3012 3010 3007 3008 3005 3001 2996 2993 2991 2989 2989 2990 2993 2996 3000 3003 3008 3013 3020 3024 3029 3032 3036 3039 3042 3043 3042 3042 3041 3042 3043 3045 3046 3047 3048 3050
3004 3004 3004 3004 3006 3010 3008 3009 3010 3010 3008 3008 3000 2996 2994 2991 2990 2988 2986 2988 2991 2994 2997 3000 3004 3009 3015 3017 3021 3027 3032 3036 3038 3039 3039 3040 3040 3041 3043 3045 3045 3046 3047 3048
3003 3003 3002 3003 3004 3006 3006 3008 3009 3008 3006 2999 2993 2993 2991 2987 2986 2983 2982 2984 2987 2989 2993 2995 2999 3004 3007 3010 3016 3021 3027 3031 3034 3036 3037 3038 3038 3039 3041 3043 3045 3045 3046 3046
2999 3001 3003 3002 3001 3003 3005 3005 3006 3004 3004 3000 2997 2992 2990 2990 2987 2983 2979 2979 2982 2983 2987 2990 2993 2999 3002 3005 3010 3017 3023 3027 3030 3032 3034 3036 3037 3038 3040 3042 3043 3044 3046 3047
2996 2997 2998 2998 2999 3001 3002 3002 3003 3002 3001 2999 2998 2994 2990 2988 2985 2983 2980 2977 2977 2979 2981 2984 2987 2991 2994 2998 3005 3012 3018 3023 3026 3028 3031 3034 3036 3037 3040 3041 3042 3043 3044 3046
2990 2993 2995 2996 2997 2997 2998 3000 3000 2999 2998 2996 2997 2993 2990 2988 2986 2981 2979 2975 2974 2973 2976 2978 2982 2985 2988 2993 2999 3006 3012 3018 3021 3025 3029 3031 3033 3036 3038 3040 3041 3043 3044 3045
2985 2987 2990 2989 2990 2993 2996 2997 2997 2998 2998 2995 2994 2990 2988 2985 2984 2980 2977 2975 2973 2972 2973 2975 2978 2981 2985 2989 2994 2999 3005 3010 3016 3021 3025 3028 3030 3033 3036 3038 3040 3041 3042 3044
2985 2985 2987 2989 2988 2991 2992 2992 2993 2993 2992 2991 2986 2986 2984 2983 2982 2978 2976 2973 2970 2970 2972 2974 2975 2978 2983 2987 2992 2996 3002 3008 3013 3018 3022 3025 3027 3030 3033 3035 3036 3038 3039 3041
2984 2984 2986 2985 2988 2989 2988 2988 2987 2986 2986 2984 2982 2978 2981 2978 2977 2975 2974 2972 2969 2969 2970 2972 2974 2975 2980 2984 2989 2995 3000 3005 3011 3014 3017 3020 3023 3026 3029 3031 3033 3035 3036 3037
2983 2986 2989 2988 2987 2984 2984 2983 2983 2983 2984 2982 2978 2977 2975 2975 2973 2971 2971 2970 2970 2967 2967 2970 2973 2975 2978 2983 2988 2992 2998 3004 3007 3009 3011 3013 3018 3023 3025 3026 3029 3031 3032 3034
2984 2988 2990 2987 2983 2983 2981 2981 2981 2980 2982 2980 2976 2973 2972 2972 2970 2970 2970 2970 2967 2963 2962 2966 2970 2973 2977 2984 2986 2990 2995 2997 3000 3001 3005 3009 3015 3019 3020 3022 3024 3025 3027 3028
2984 2986 2986 2982 2982 2981 2978 2979 2979 2977 2979 2976 2972 2970 2969 2968 2967 2966 2967 2969 2968 2968 2969 2965 2968 2970 2973 2977 2983 2986 2987 2990 2994 2991 2997 3003 3009 3012 3013 3015 3018 3019 3020 3020
2979 2980 2983 2982 2983 2980 2977 2977 2976 2976 2975 2973 2971 2969 2967 2965 2961 2962 2963 2964 2965 2968 2969 2969 2971 2971 2974 2978 2982 2986 2987 2990 2994 2998 3001 3003 3005 3006 3007 3008 3010 3011 3012 3013
2974 2975 2977 2980 2981 2976 2975 2974 2973 2976 2978 2971 2969 2966 2963 2962 2962 2958 2958 2961 2964 2967 2970 2971 2974 2976 2977 2981 2984 2986 2988 2990 2993 2995 2997 2999 3000 3001 3002 3003 3004 3004 3005 3005
2973 2975 2977 2978 2978 2977 2974 2974 2975 2975 2972 2969 2966 2962 2957 2956 2956 2957 2959 2962 2966 2969 2972 2974 2977 2979 2981 2983 2983 2985 2989 2989 2991 2992 2993 2995 2996 2996 2997 2997 2998 2998 2998 2998
2975 2975 2976 2977 2975 2973 2972 2972 2971 2970 2970 2968 2966 2961 2956 2956 2958 2960 2962 2965 2967 2970 2972 2976 2979 2980 2981 2982 2982 2983 2984 2986 2987 2989 2989 2989 2990 2990 2990 2990 2991 2991 2992 2992
2973 2973 2973 2974 2971 2970 2970 2969 2969 2968 2968 2967 2966 2965 2964 2963 2963 2965 2967 2969 2970 2972 2974 2976 2978 2979 2980 2980 2980 2981 2982 2983 2984 2984 2985 2986 2986 2986 2986 2986 2987 2987 2987 2986
2970 2970 2969 2969 2968 2967 2967 2967 2968 2967 2967 2966 2965 2966 2965 2967 2968 2968 2970 2971 2972 2973 2974 2975 2975 2977 2978 2979 2979 2980 2980 2980 2981 2981 2982 2983 2983 2983 2982 2982 2982 2981 2981 2980
2967 2967 2966 2964 2963 2963 2965 2966 2967 2967 2967 2966 2966 2967 2967 2967 2968 2969 2970 2970 2971 2972 2973 2974 2975 2975 2976 2977 2977 2977 2977 2978 2978 2979 2979 2979 2978 2977 2977 2976 2976 2975 2974 2974